Location: Unspecified
(36.9193°S, 174.7252°E)
Time: 22:26:57
(UTC+12:00)

X-37B - Visible Passes

Search period start: 21 September 2021 00:00
Search period end: 01 October 2021 01:00
Orbit: 381 x 393 km, 45.0° (Epoch: 29 August)

Date Brightness Start Highest point End Pass type
(mag) Time Alt. Az. Time Alt. Az. Time Alt. Az.
21 Sep 2.5 18:40:17 10° WSW 18:43:03 25° SSW 18:45:49 10° SE visible
21 Sep 3.2 20:17:56 10° SW 20:19:30 18° SSW 20:19:30 18° SSW visible
22 Sep 2.8 19:19:20 10° SW 19:21:45 19° S 19:23:47 12° SE visible
23 Sep 2.5 19:57:50 10° SW 20:00:21 22° S 20:00:21 22° S visible
24 Sep 2.7 18:59:23 10° SW 19:01:52 20° S 19:04:20 10° SE visible
24 Sep 3.5 20:35:55 10° SW 20:36:54 18° SW 20:36:54 18° SW visible
25 Sep 1.9 19:37:37 10° SW 19:40:32 29° SSE 19:41:12 27° SE visible
26 Sep 2.1 21:15:42 10° WSW 21:17:48 37° SW 21:17:48 37° SW visible
27 Sep 1.3 20:17:22 10° SW 20:20:31 44° SSE 20:22:11 23° E visible
27 Sep 4.1 21:54:16 10° W 21:54:28 11° W 21:54:28 11° W visible
28 Sep 1.0 20:55:35 10° WSW 20:58:46 53° NW 20:58:54 53° NNW visible
29 Sep 0.6 19:57:09 10° WSW 20:00:25 78° SSE 20:03:25 12° ENE visible
29 Sep 3.6 21:35:01 10° WNW 21:35:43 12° WNW 21:35:43 12° WNW visible
30 Sep 2.4 20:35:44 10° W 20:38:30 26° NW 20:40:19 16° N visible
